Regional Weather Roundup
Issued by NWS Goodland, KS

Home | Current Version | Previous Version | Graphics & Text | Print | Product List | Glossary On
Versions: 1 2 3 4 5 6 7 8 9 10 11 12 13 14 15 16 17 18 19 20 21 22 23 24 25 26 27 28 29 30 31 32 33 34 35 36 37 38 39 40 41 42 43 44 45 46 47 48 49 50
000
ASUS43 KGLD 231708
RWRGLD

GOODLAND FORECAST AREA HOURLY WEATHER ROUNDUP
NATIONAL WEATHER SERVICE GOODLAND KS
1100 AM MDT SAT JUL 23 2016

...OFFICIAL OBSERVATIONS...

CITY           SKY/WX    TMP DP  RH WIND       PRES   REMARKS
GOODLAND KS    SUNNY     89  60  37 NW7       29.96S
HILL CITY KS   CLOUDY    91  63  39 S14G22    29.86F
IMPERIAL NEB   CLOUDY    81  66  60 SW6       29.94F
MCCOOK NEB     CLOUDY    84  68  58 SW8       29.89F
AKRON CO       SUNNY     89  52  28 NW10      30.06R
BURLINGTON CO  SUNNY     89  58  34 NW10      30.01R
LIMON CO       SUNNY     92  43  18 N17G25    30.12R
$$

...UNOFFICIAL OBSERVATIONS...

CITY           SKY/WX    TMP DP  RH WIND       PRES   REMARKS
COLBY KS       SUNNY     88  64  45 W3        29.94F
LENORA KS        N/A     90  32  12 MISG        N/A
NORTON KS      SUNNY     93  55  27 SW13G18   29.87R
$$




USA.gov is the U.S. government's official web portal to all federal, state and local government web resources and services.